BEIDOU 19 (C58)

Last updated on Jan. 19, 2020, 4:38 a.m. UTC

1 40749U 15037B   20018.40218372 -.00000071  00000-0  00000-0 0  9997
2 40749  55.8994  21.4339 0007603 291.9341  65.7224  1.86234377 30496
UTC
Height (km)
Latitude
Longitude
Inclination
Orbital Period
UTC large
Height (km)
Speed (km/s)
/
Latitude / Longitude
Inclination (degrees)
Orbital Period (minutes)
Azimuth
Elevation
Range (km)
Doppler Factor
iOS Compass Heading
iOS Angle

Next 30 passes for location: Hong Kong

Rise time Rise Azimuth (degrees) Set time Set Azimuth (degrees) Duration Max altitude (degrees)

No matching passes for this satellites